Location: Newark
(33.9035°S, 18.4112°E)
Time: 02:06:27
(UTC+00:00)

STARLINK-1121 - Pass Details

Date: 19 January 2020
Orbit: 549 x 550 km, 53.0° (Epoch: 23 February)

Event Time Altitude Azimuth Distance (km) Brightness Sun altitude
Exits shadow 01:22:32 11° 59° (ENE) 1,772 6.3 -25.5°
Drops below altitude 10° 01:23:35 10° 74° (ENE) 1,834 6.5 -25.4°
Enters shadow 02:22:45 -69° 312° (NW) 12,500 10.4 -16.8°
Maximum altitude 03:01:32 75° 225° (SW) 579 3.7 -10.4°
